Location: Tr�vern
(48.0333°N, 4.6000°W)
Time: 02:38:38
(UTC+00:00)

Cosmos 1536 - Pass Details

Date: 14 July 2020
Orbit: 539 x 559 km, 82.5° (Epoch: 04 August)

Event Time Altitude Azimuth Distance (km) Brightness Sun altitude
Exits shadow 03:38:47 10° 232° (SW) 1,844 4.8 -7.9°
Reaches altitude 10° 03:38:47 10° 232° (SW) 1,843 4.8 -7.9°
Maximum altitude 03:42:11 25° 289° (WNW) 1,139 4.2 -7.5°
Drops below altitude 10° 03:45:36 10° 346° (NNW) 1,848 5.9 -7.1°
Sets 03:48:04 0° 360° (N) 2,744 7.1 -6.8°
